This demonstration page uses our WeatherBlox Daily Observations layout. Learn more.

Hourly Observations for March 4, 2020

Temp ( °F °C ) Dew Point ( °F °C ) Humidity (%) Winds ( mph kmh ) Pressure ( in mb ) Visibility ( mi km ) Precip ( " mm )
12:15 am 00:15 Clear 38 3.3 29 -1.5 71 71 WNW 9 15 30.06 1018 10 16.0934 0 0
12:35 am 00:35 Clear 37 2.6 29 -1.9 73 73 NW 9 15 30.07 1018 10 16.0934 0 0
12:55 am 00:55 Clear 37 2.6 28 -2.1 71 71 NW 8 13 30.07 1018 10 16.0934 0 0
1:15 am 01:15 Clear 35 1.8 28 -2.5 73 73 WNW 7 11 30.08 1019 10 16.0934 0 0
1:35 am 01:35 Clear 35 1.7 28 -2.4 75 75 WNW 7 11 30.09 1019 10 16.0934 0 0
1:55 am 01:55 Clear 35 1.5 28 -2.1 77 77 WNW 7 11 30.1 1019 10 16.0934 0 0
2:15 am 02:15 Clear 34 1 28 -2.5 78 78 W 8 13 30.12 1020 10 16.0934 0 0
2:35 am 02:35 Clear 35 1.6 28 -2.1 77 77 WNW 7 11 30.1 1019 10 16.0934 0 0
2:55 am 02:55 Clear 35 1.4 28 -2.3 77 77 WNW 6 9 30.1 1019 10 16.0934 0 0
3:15 am 03:15 Clear 35 1.6 29 -1.8 78 78 WNW 8 13 30.1 1019 10 16.0934 0 0
3:35 am 03:35 Clear 35 1.6 29 -1.8 78 78 WNW 8 13 30.1 1019 10 16.0934 0 0
3:55 am 03:55 Clear 34 1.2 29 -1.9 80 80 WNW 9 15 30.09 1019 10 16.0934 0 0
4:15 am 04:15 Clear 34 1.3 29 -1.9 79 79 WNW 10 17 30.1 1019 10 16.0934 0 0
4:35 am 04:35 Clear 35 1.6 28 -2 77 77 WNW 9 15 30.1 1019 10 16.0934 0 0
4:55 am 04:55 Clear 34 1.3 28 -2.1 78 78 WNW 6 9 30.1 1019 10 16.0934 0 0
5:15 am 05:15 Clear 33 0.8 28 -2.5 79 79 WNW 6 9 30.11 1020 10 16.0934 0 0
5:35 am 05:35 Clear 32 0 27 -3 80 80 W 6 9 30.11 1020 10 16.0934 0 0
5:55 am 05:55 Clear 31 -0.3 26 -3.3 80 80 W 8 13 30.14 1021 10 16.0934 0 0
6:15 am 06:15 Clear 31 -0.3 26 -3.4 80 80 W 8 13 30.14 1021 10 16.0934 0 0
6:35 am 06:35 Clear 31 -0.4 26 -3.2 82 82 W 6 9 30.14 1021 10 16.0934 0 0
6:55 am 06:55 Clear 31 -0.6 26 -3.5 81 81 W 5 7 30.14 1021 10 16.0934 0 0
7:15 am 07:15 Sunny 32 0 26 -3.1 80 80 Calm 30.14 1020 10 16.0934 0 0
7:35 am 07:35 Sunny 32 0 26 -3.3 79 79 W 3 6 30.12 1020 10 16.0934 0 0
7:55 am 07:55 Sunny 33 0.5 27 -2.6 80 80 WNW 6 9 30.11 1020 10 16.0934 0 0
8:15 am 08:15 Sunny 35 1.7 28 -2.3 75 75 WNW 7 11 30.1 1019 10 16.0934 0 0
8:35 am 08:35 Sunny 37 2.7 29 -1.6 74 74 Calm 30.09 1019 10 16.0934 0 0
8:55 am 08:55 Sunny 40 4.3 31 -0.5 71 71 W 3 6 30.07 1018 10 16.0934 0 0
9:15 am 09:15 Sunny 43 6.1 32 0 65 65 W 3 6 30.06 1018 10 16.0934 0 0
9:35 am 09:35 Sunny 46 8 32 -0.2 57 57 Calm 30.05 1018 10 16.0934 0 0
9:55 am 09:55 Sunny 50 9.8 33 0.4 52 52 SSW 9 15 30.04 1017 10 16.0934 0 0
10:15 am 10:15 Sunny 48 9.1 33 0.3 54 54 SW 8 13 30.03 1017 10 16.0934 0 0
10:35 am 10:35 Sunny 50 9.8 32 0.1 51 51 SW 8 13 30.02 1017 10 16.0934 0 0
10:55 am 10:55 Sunny 52 10.9 31 -0.3 46 46 SSW 12 19 30.01 1016 10 16.0934 0 0
11:15 am 11:15 Sunny 54 12.3 29 -1.5 39 39 SW 13 20 29.99 1016 10 16.0934 0 0
11:35 am 11:35 Sunny 56 13.3 28 -2.2 34 34 SW 17 28 29.97 1015 10 16.0934 0 0
11:55 am 11:55 Sunny 56 13.4 27 -2.8 33 33 SW 20 31 29.97 1015 10 16.0934 0 0
12:15 pm 12:15 Sunny 57 14 29 -1.6 34 34 SW 15 24 29.96 1014 10 16.0934 0 0
12:35 pm 12:35 Sunny 58 14.7 28 -2.2 31 31 SW 16 26 29.93 1014 10 16.0934 0 0
12:55 pm 12:55 Sunny 60 15.7 26 -3.4 27 27 SSW 18 30 29.92 1013 10 16.0934 0 0
1:15 pm 13:15 Sunny 61 16.2 28 -2.5 28 28 SW 17 28 29.9 1012 10 16.0934 0 0
1:35 pm 13:35 Sunny 62 16.7 27 -2.8 26 26 SSW 20 31 29.87 1012 10 16.0934 0 0
1:55 pm 13:55 Sunny 63 17 27 -2.7 26 26 SW 18 30 29.86 1011 10 16.0934 0 0
2:15 pm 14:15 Sunny 63 17 27 -3 25 25 SW 25 41 29.86 1011 10 16.0934 0 0
2:35 pm 14:35 Sunny 64 17.5 26 -3.3 24 24 SW 23 37 29.85 1011 10 16.0934 0 0
2:55 pm 14:55 Sunny 63 17.4 25 -4 23 23 SSW 16 26 29.84 1010 10 16.0934 0 0
3:15 pm 15:15 Sunny 64 17.9 25 -4 22 22 SSW 20 31 29.83 1010 10 16.0934 0 0
3:35 pm 15:35 Sunny 65 18.1 25 -3.7 23 23 SSW 21 33 29.82 1010 10 16.0934 0 0
3:55 pm 15:55 Sunny 65 18.1 25 -4 22 22 SSW 24 39 29.81 1010 10 16.0934 0 0
4:15 pm 16:15 Sunny 65 18.2 25 -4 22 22 SW 21 33 29.8 1009 10 16.0934 0 0
4:35 pm 16:35 Sunny 64 18 24 -4.5 21 21 SW 24 39 29.8 1009 10 16.0934 0 0
4:55 pm 16:55 Sunny 64 17.8 24 -4.6 21 21 SSW 26 43 29.81 1009 10 16.0934 0 0
5:15 pm 17:15 Sunny 63 17.2 24 -4.3 23 23 SSW 21 33 29.8 1009 10 16.0934 0 0
5:35 pm 17:35 Sunny 62 16.9 23 -5 22 22 SW 22 35 29.79 1009 10 16.0934 0 0
5:55 pm 17:55 Sunny 61 16.3 23 -5.1 23 23 SSW 17 28 29.8 1009 10 16.0934 0 0
6:15 pm 18:15 Sunny 60 15.5 23 -5 24 24 SSW 21 33 29.81 1009 10 16.0934 0 0
6:35 pm 18:35 Clear 58 14.2 23 -5 26 26 SSW 17 28 29.82 1010 10 16.0934 0 0
6:55 pm 18:55 Clear 56 13.5 23 -5.1 27 27 S 15 24 29.82 1010 10 16.0934 0 0
7:15 pm 19:15 Clear 55 12.7 23 -5 29 29 S 16 26 29.83 1010 10 16.0934 0 0
7:35 pm 19:35 Clear 54 12 23 -5.1 30 30 SSW 16 26 29.84 1010 10 16.0934 0 0
7:55 pm 19:55 Clear 53 11.6 22 -5.5 30 30 S 16 26 29.84 1010 10 16.0934 0 0
8:15 pm 20:15 Clear 53 11.5 21 -6 29 29 SSW 16 26 29.85 1011 10 16.0934 0 0
8:35 pm 20:35 Clear 51 10.7 21 -6.2 30 30 SSW 13 20 29.86 1011 10 16.0934 0 0
8:55 pm 20:55 Clear 47 8.4 21 -6 36 36 SSW 10 17 29.89 1012 10 16.0934 0 0
9:15 pm 21:15 Clear 48 9 21 -6 34 34 SW 14 22 29.89 1012 10 16.0934 0 0
9:35 pm 21:35 Clear 47 8.2 21 -6 36 36 SW 14 22 29.9 1012 10 16.0934 0 0
9:55 pm 21:55 Clear 48 9 22 -5.7 35 35 SW 18 30 29.88 1012 10 16.0934 0 0
10:15 pm 22:15 Clear 51 10.3 22 -5.6 32 32 SW 16 26 29.88 1012 10 16.0934 0 0
10:35 pm 22:35 Clear 50 10 22 -5.5 33 33 SW 14 22 29.9 1013 10 16.0934 0 0
10:55 pm 22:55 Clear 49 9.3 22 -5.6 35 35 SW 10 17 29.92 1013 10 16.0934 0 0
11:15 pm 23:15 Clear 48 9.1 22 -5.5 35 35 WSW 12 19 29.92 1013 10 16.0934 0 0
11:35 pm 23:35 Clear 49 9.3 21 -5.9 34 34 WSW 10 17 29.93 1014 10 16.0934 0 0
11:55 pm 23:55 Clear 47 8.5 22 -5.8 36 36 WSW 7 11 29.95 1014 10 16.0934 0 0

Powered by AerisWeather